Location: Eindhoven
(51.4416°N, 5.4697°E)
Time: 07:11:19
(UTC+01:00)

deb Explorer IX - Pass Details

Date: 23 November 2019
Orbit: 545 x 1105 km, 38.8° (Epoch: 05 December)

Event Time Altitude Azimuth Distance (km) Brightness Sun altitude
Rises 23:34:56 0° 216° (SW) 3,887 - -57.5°
Reaches altitude 10° 23:38:39 10° 200° (SSW) 2,886 - -57.7°
Maximum altitude 23:43:12 18° 159° (SSE) 2,242 - -57.9°
Drops below altitude 10° 23:47:29 10° 118° (ESE) 2,692 - -58.2°
Sets 23:50:47 0° 101° (E) 3,536 - -58.3°
